When you browse on this site, cookies collect data to enhance your experience and personalize the content and advertising you see.
Visit our Privacy Policy to learn more. By continuing to use the site, you agree to this use of cookies and data.
  • En España
  • Lista de países
  • Para 7 días
  • Temperatura del agua
  • Mapa Satelital
  • El tiempo en el mapa
  • Informadores
  • user-avatar
    Iniciar sesión

    Tiempo cada hora Malanje

    Hoy, 13 Diciembre, Jueves

    Tiempo Temperatura Precipitaciones Viento Presión Humedad
    00:00 +20°C° 0 mm 1 mps 666 mmHg 93%
    01:00 +19°C° 0 mm 1 mps 666 mmHg 93%
    02:00 +19°C° 0 mm 1 mps 666 mmHg 95%
    03:00 +19°C° 0 mm 1 mps 666 mmHg 96%
    04:00 +19°C° 0 mm 1 mps 666 mmHg 98%
    05:00 +20°C° 0 mm 1 mps 666 mmHg 97%
    06:00 +20°C° 0 mm 1 mps 667 mmHg 96%
    07:00 +21°C° 0 mm 1 mps 667 mmHg 95%
    08:00 +22°C° 0 mm 1 mps 668 mmHg 89%
    09:00 +24°C° 0 mm 1 mps 668 mmHg 84%
    10:00 +25°C° 0 mm 1 mps 668 mmHg 79%
    11:00 +26°C° 0.2 mm 1 mps 667 mmHg 75%
    12:00 +27°C° 0.2 mm 1 mps 667 mmHg 72%
    13:00 +28°C° 0.2 mm 1 mps 666 mmHg 68%
    14:00 +28°C° 0.6 mm 1 mps 666 mmHg 71%
    15:00 +28°C° 0.6 mm 1 mps 665 mmHg 75%
    16:00 +27°C° 0.6 mm 1 mps 665 mmHg 78%
    17:00 +25°C° 1.7 mm 1 mps 665 mmHg 83%
    18:00 +24°C° 1.7 mm 1 mps 665 mmHg 87%
    19:00 +22°C° 1.7 mm 1 mps 665 mmHg 92%
    20:00 +21°C° 0.2 mm 1 mps 666 mmHg 93%
    21:00 +21°C° 0.2 mm 1 mps 666 mmHg 93%
    22:00 +21°C° 0.2 mm 1 mps 667 mmHg 94%
    23:00 +21°C° 0.1 mm 1 mps 667 mmHg 95%

    Mañana, 14 Diciembre, Viernes

    Tiempo Temperatura Precipitaciones Viento Presión Humedad
    00:00 +21°C° 0.1 mm 1 mps 666 mmHg 95%
    01:00 +20°C° 0.1 mm 1 mps 666 mmHg 96%
    02:00 +20°C° 0.6 mm 1 mps 666 mmHg 97%
    03:00 +20°C° 0.6 mm 1 mps 666 mmHg 97%
    04:00 +20°C° 0.6 mm 1 mps 666 mmHg 98%
    05:00 +20°C° 0.2 mm 1 mps 666 mmHg 98%
    06:00 +20°C° 0.2 mm 1 mps 667 mmHg 98%
    07:00 +19°C° 0.2 mm 2 mps 667 mmHg 98%
    08:00 +20°C° 0 mm 2 mps 667 mmHg 94%
    09:00 +21°C° 0 mm 2 mps 668 mmHg 90%
    10:00 +23°C° 0 mm 2 mps 668 mmHg 87%
    11:00 +24°C° 0.2 mm 2 mps 668 mmHg 82%
    12:00 +25°C° 0.2 mm 2 mps 667 mmHg 78%
    13:00 +26°C° 0.2 mm 2 mps 667 mmHg 73%
    14:00 +26°C° 0.8 mm 2 mps 666 mmHg 78%
    15:00 +25°C° 0.8 mm 2 mps 666 mmHg 83%
    16:00 +25°C° 0.8 mm 2 mps 665 mmHg 88%
    17:00 +24°C° 1.4 mm 2 mps 665 mmHg 90%
    18:00 +21°C° 1.4 mm 2 mps 666 mmHg 93%
    19:00 +20°C° 1.4 mm 2 mps 666 mmHg 95%
    20:00 +20°C° 1 mm 2 mps 667 mmHg 96%
    21:00 +20°C° 1 mm 1 mps 667 mmHg 97%
    22:00 +20°C° 1 mm 1 mps 667 mmHg 97%
    23:00 +20°C° 0.7 mm 1 mps 667 mmHg 98%

    Pasado mañana, 15 Diciembre, Sábado

    Tiempo Temperatura Precipitaciones Viento Presión Humedad
    00:00 +19°C° 0.7 mm 2 mps 667 mmHg 98%
    01:00 +19°C° 0.7 mm 2 mps 666 mmHg 99%
    02:00 +19°C° 0.7 mm 2 mps 666 mmHg 99%
    03:00 +19°C° 0.7 mm 2 mps 666 mmHg 99%
    04:00 +19°C° 0.7 mm 2 mps 666 mmHg 99%
    05:00 +19°C° 0.5 mm 2 mps 666 mmHg 98%
    06:00 +19°C° 0.5 mm 2 mps 667 mmHg 98%
    07:00 +19°C° 0.5 mm 2 mps 667 mmHg 98%
    08:00 +19°C° 0.3 mm 2 mps 668 mmHg 97%
    09:00 +20°C° 0.3 mm 2 mps 668 mmHg 95%
    10:00 +20°C° 0.3 mm 2 mps 668 mmHg 94%
    11:00 +21°C° 0.3 mm 2 mps 668 mmHg 88%
    12:00 +24°C° 0.3 mm 2 mps 668 mmHg 82%
    13:00 +25°C° 0.3 mm 2 mps 667 mmHg 76%
    14:00 +25°C° 0.1 mm 2 mps 667 mmHg 76%
    15:00 +24°C° 0.1 mm 2 mps 666 mmHg 76%
    16:00 +24°C° 0.1 mm 2 mps 666 mmHg 76%
    17:00 +23°C° 0.1 mm 2 mps 666 mmHg 81%
    18:00 +22°C° 0.1 mm 1 mps 667 mmHg 86%
    19:00 +20°C° 0.1 mm 1 mps 667 mmHg 91%
    20:00 +20°C° 0.1 mm 1 mps 667 mmHg 92%
    21:00 +20°C° 0.1 mm 1 mps 668 mmHg 92%
    22:00 +17°C° 0.1 mm 0 mps 668 mmHg 93%
    23:00 +17°C° 0.1 mm 0 mps 668 mmHg 94%

    16 Diciembre, Domingo

    Tiempo Temperatura Precipitaciones Viento Presión Humedad
    00:00 +17°C° 0.1 mm 0 mps 667 mmHg 94%
    01:00 +17°C° 0.1 mm 0 mps 667 mmHg 95%
    02:00 +17°C° 0.2 mm 0 mps 666 mmHg 95%
    03:00 +18°C° 0.2 mm 1 mps 666 mmHg 95%
    04:00 +18°C° 0.2 mm 1 mps 666 mmHg 96%
    05:00 +19°C° 0.1 mm 1 mps 666 mmHg 95%
    06:00 +19°C° 0.1 mm 1 mps 667 mmHg 95%
    07:00 +19°C° 0.1 mm 1 mps 667 mmHg 94%
    08:00 +20°C° 0.1 mm 1 mps 667 mmHg 89%
    09:00 +21°C° 0.1 mm 2 mps 668 mmHg 83%
    10:00 +23°C° 0.1 mm 2 mps 668 mmHg 78%
    11:00 +24°C° 0 mm 2 mps 668 mmHg 72%
    12:00 +25°C° 0 mm 2 mps 667 mmHg 67%
    13:00 +26°C° 0 mm 3 mps 667 mmHg 61%
    14:00 +26°C° 0 mm 3 mps 666 mmHg 64%
    15:00 +26°C° 0 mm 3 mps 666 mmHg 66%
    16:00 +25°C° 0 mm 2 mps 666 mmHg 68%
    17:00 +24°C° 0 mm 2 mps 666 mmHg 73%
    18:00 +22°C° 0 mm 1 mps 666 mmHg 78%
    19:00 +21°C° 0 mm 1 mps 666 mmHg 83%
    20:00 +20°C° 0 mm 1 mps 666 mmHg 84%
    21:00 +18°C° 0 mm 0 mps 667 mmHg 86%
    22:00 +17°C° 0 mm 0 mps 667 mmHg 87%
    23:00 +17°C° 0 mm 0 mps 666 mmHg 86%

    17 Diciembre, Lunes

    Tiempo Temperatura Precipitaciones Viento Presión Humedad
    00:00 +17°C° 0 mm 0 mps 666 mmHg 86%
    01:00 +17°C° 0 mm 0 mps 666 mmHg 85%
    02:00 +19°C° 0 mm 1 mps 665 mmHg 86%
    03:00 +18°C° 0 mm 1 mps 665 mmHg 87%
    04:00 +18°C° 0 mm 1 mps 665 mmHg 88%
    05:00 +19°C° 0 mm 1 mps 666 mmHg 88%
    06:00 +19°C° 0 mm 1 mps 666 mmHg 87%
    07:00 +19°C° 0 mm 2 mps 667 mmHg 87%
    08:00 +21°C° 0 mm 1 mps 667 mmHg 85%
    09:00 +22°C° 0 mm 1 mps 667 mmHg 82%
    10:00 +23°C° 0 mm 1 mps 667 mmHg 80%
    11:00 +24°C° 0.1 mm 1 mps 667 mmHg 74%
    12:00 +26°C° 0.1 mm 2 mps 666 mmHg 68%
    13:00 +27°C° 0.1 mm 2 mps 666 mmHg 62%
    14:00 +27°C° 0 mm 2 mps 666 mmHg 64%
    15:00 +27°C° 0 mm 2 mps 665 mmHg 65%
    16:00 +27°C° 0 mm 2 mps 665 mmHg 66%
    17:00 +25°C° 0.2 mm 2 mps 665 mmHg 74%
    18:00 +23°C° 0.2 mm 1 mps 665 mmHg 81%
    19:00 +21°C° 0.2 mm 1 mps 665 mmHg 88%
    20:00 +21°C° 0.2 mm 1 mps 665 mmHg 89%
    21:00 +20°C° 0.2 mm 1 mps 666 mmHg 91%
    22:00 +20°C° 0.2 mm 1 mps 666 mmHg 92%
    23:00 +20°C° 0.1 mm 1 mps 666 mmHg 93%

    18 Diciembre, Martes

    Tiempo Temperatura Precipitaciones Viento Presión Humedad
    00:00 +19°C° 0.1 mm 1 mps 665 mmHg 95%
    01:00 +19°C° 0.1 mm 1 mps 665 mmHg 96%
    02:00 +19°C° 0 mm 1 mps 665 mmHg 97%
    03:00 +18°C° 0 mm 2 mps 665 mmHg 97%
    04:00 +18°C° 0 mm 2 mps 665 mmHg 98%
    05:00 +18°C° 0 mm 2 mps 665 mmHg 97%
    06:00 +19°C° 0 mm 2 mps 666 mmHg 96%
    07:00 +19°C° 0 mm 2 mps 666 mmHg 96%
    08:00 +20°C° 0 mm 2 mps 667 mmHg 91%
    09:00 +23°C° 0 mm 2 mps 667 mmHg 86%
    10:00 +24°C° 0 mm 1 mps 667 mmHg 81%
    11:00 +25°C° 0 mm 2 mps 666 mmHg 75%
    12:00 +26°C° 0 mm 2 mps 666 mmHg 70%
    13:00 +28°C° 0 mm 3 mps 665 mmHg 64%
    14:00 +27°C° 0.1 mm 3 mps 665 mmHg 67%
    15:00 +27°C° 0.1 mm 3 mps 664 mmHg 70%
    16:00 +27°C° 0.1 mm 2 mps 664 mmHg 73%
    17:00 +25°C° 0 mm 2 mps 664 mmHg 77%
    18:00 +23°C° 0 mm 2 mps 664 mmHg 82%
    19:00 +22°C° 0 mm 1 mps 664 mmHg 87%
    20:00 +20°C° 0 mm 2 mps 664 mmHg 87%
    21:00 +20°C° 0 mm 2 mps 665 mmHg 88%
    22:00 +19°C° 0 mm 2 mps 665 mmHg 88%
    23:00 +19°C° 0 mm 2 mps 665 mmHg 89%
    Mostrar más